This demonstration page uses our WeatherBlox Daily Observations layout. Learn more.

Left ArrowRight Arrow

Hourly Observations for July 4, 2018

Temp ( °F °C ) Dew Point ( °F °C ) Humidity (%) Winds ( mph kmh ) Pressure ( in mb ) Visibility ( mi km ) Precip ( " mm )
12:53 am 00:53 Clear 74 23.3 57 13.9 56 56 Calm 29.76 1008 10 16 0.00 0.00
1:53 am 01:53 Clear 74 23.3 58 14.4 57 57 WSW 6 9 29.77 1008 10 16 0.00 0.00
2:53 am 02:53 Clear 73 22.8 58 14.4 59 59 Calm 29.78 1009 9 14 0.00 0.00
3:53 am 03:53 Clear 71 21.7 57 13.9 61 61 SSW 3 6 29.80 1009 9 14 0.00 0.00
4:53 am 04:53 Clear 69 20.6 56 13.3 63 63 SSE 5 7 29.81 1010 9 14 0.00 0.00
5:53 am 05:53 Sunny 66 18.9 56 13.3 70 70 Calm 29.84 1010 8 13 0.00 0.00
6:53 am 06:53 Sunny 67 19.4 56 13.3 68 68 S 5 7 29.86 1011 8 13 0.00 0.00
7:53 am 07:53 Sunny 69 20.6 55 12.8 61 61 SW 3 6 29.88 1012 7 11 0.00 0.00
8:53 am 08:53 Sunny 72 22.2 55 12.8 55 55 SW 5 7 29.89 1012 8 13 0.00 0.00
9:53 am 09:53 Sunny 74 23.3 54 12.2 50 50 S 7 11 29.89 1012 8 13 0.00 0.00
10:53 am 10:53 Sunny 77 25 55 12.8 47 47 SSW 6 9 29.89 1012 9 14 0.00 0.00
11:53 am 11:53 Sunny 80 26.7 54 12.2 41 41 E 5 7 29.89 1012 8 13 0.00 0.00
12:53 pm 12:53 Sunny 84 28.9 51 10.6 32 32 S 17 28 29.89 1012 8 13 0.00 0.00
1:53 pm 13:53 Sunny 86 30 51 10.6 30 30 SSE 18 30 29.88 1012 9 14 0.00 0.00
2:53 pm 14:53 Sunny 87 30.6 50 10 28 28 SSW 13 20 29.88 1012 10 16 0.00 0.00
3:53 pm 15:53 Sunny 88 31.1 50 10 27 27 S 15 24 29.87 1011 10 16 0.00 0.00
4:53 pm 16:53 Sunny 89 31.7 40 4.4 18 18 SSW 18 30 29.86 1011 10 16 0.00 0.00
5:53 pm 17:53 Sunny 88 31.1 41 5 19 19 SSE 16 26 29.85 1011 10 16 0.00 0.00
6:53 pm 18:53 Sunny 86 30 39 3.9 19 19 SSW 13 20 29.86 1011 10 16 0.00 0.00
7:53 pm 19:53 Sunny 84 28.9 38 3.3 19 19 S 13 20 29.87 1012 10 16 0.00 0.00
8:53 pm 20:53 Clear 79 26.1 42 5.6 27 27 SSE 9 15 29.89 1012 10 16 0.00 0.00
9:53 pm 21:53 Clear 75 23.9 45 7.2 34 34 E 3 6 29.92 1013 10 16 0.00 0.00
10:53 pm 22:53 Clear 72 22.2 49 9.4 44 44 Calm 29.95 1014 10 16 0.00 0.00
11:53 pm 23:53 Clear 70 21.1 50 10 49 49 Calm 29.96 1015 10 16 0.00 0.00

Powered by AerisWeather